Home > Weather > Villavicencio > Past weeks

Flag for Colombia Weather for the Past 2 Weeks in Villavicencio, Colombia

Now
61 °F

Passing clouds.


Feels Like: 61 °F
Forecast: 69 / 90 °F
Wind: 10 mph from East

Location: Bogota / Eldorado

Current Time: Feb 9, 2016 at 9:00:34 PM

Latest Report: Feb 9, 2016 at 8:00 PM


Visibility: N/A

Pressure: 30.35 "Hg

Humidity: 59%

Dew point: 46 °F

Location of VillavicencioLocation

Historic Weather in Villavicencio — Graph

°F

Villavicencio Temperature Yesterday

Maximum temperature yesterday: 66 °F (at 1:00 PM)
Minimum temperature yesterday: 54 °F (at 6:00 AM)
Average temperature yesterday: 59 °F

High & Low Weather Summary for the Past Weeks

 TemperatureHumidityPressure
High75 °F (Jan 27, 2:00 PM)100% (Jan 26, 2:00 AM)30.41 "Hg (Jan 26, 2:00 AM)
Low37 °F (Jan 28, 6:00 AM)12% (Jan 27, 1:00 PM)30.22 "Hg (Feb 2, 4:00 PM)
Average58 °F71%30.32 "Hg
* Reported Jan 25 7:00 PM — Feb 9 7:00 PM, Villavicencio, Weather by CustomWeather, © 2016

Note: Actual official high and low records may vary slightly from our data, if they occured in-between our weather recording intervals... More about our weather records

Advertising

Villavicencio Weather History for the Previous 24 Hours

 ConditionsComfort  
Time TempWeatherWind HumidityBarometerVisibility
7:00 PM
Tue, Feb 9
63 °FPassing clouds.6 mph52%30.33 "HgN/A
6:00 PM64 °FMild.7 mph49%30.32 "HgN/A
5:00 PM66 °FPartly sunny.14 mph46%30.30 "HgN/A
4:00 PM66 °FPartly sunny.16 mph49%30.30 "HgN/A
3:00 PM66 °FPartly sunny.12 mph46%30.31 "HgN/A
2:00 PM68 °FPartly sunny.8 mph40%30.33 "HgN/A
1:00 PM68 °FPartly sunny.12 mph40%30.37 "HgN/A
12:00 PM70 °FScattered clouds.14 mph38%30.37 "HgN/A
11:00 AM68 °FScattered clouds.12 mph40%30.39 "HgN/A
10:00 AM64 °FScattered clouds.13 mph46%30.40 "HgN/A
9:00 AM64 °FPassing clouds.6 mph49%30.40 "HgN/A
8:00 AM57 °FScattered clouds.9 mph67%30.39 "HgN/A
7:00 AM54 °FScattered clouds.8 mph77%30.36 "HgN/A
6:00 AM50 °FPassing clouds.9 mph88%30.35 "HgN/A
5:00 AM50 °FPassing clouds.5 mph88%30.33 "HgN/A
4:00 AM46 °FPassing clouds.7 mph93%30.33 "HgN/A
3:00 AM48 °FPassing clouds.7 mph87%30.32 "HgN/A
2:00 AM52 °FPassing clouds.6 mph88%30.33 "HgN/A
1:00 AM52 °FPassing clouds.5 mph82%30.36 "HgN/A
12:00 AM55 °FPassing clouds.6 mph72%30.36 "HgN/A
11:00 PM
Mon, Feb 8
57 °FPassing clouds.7 mph67%30.37 "HgN/A
10:00 PM57 °FPassing clouds.5 mph67%30.37 "HgN/A
9:00 PM57 °FPassing clouds.5 mph67%30.35 "HgN/A
Weather by CustomWeather, © 2016

See weather overviewHow to use our weather pages